Hourly Data Report for February 05, 2013

BAGOTVILLE A
QUEBEC

48°20'00.000" N
71°00'00.000" W
159.10 m
7060400
71727
YBG

Download Data

Hourly Data (February 2013)
Hourly Data Report for February 5, 2013
TIME
LST
Temp Definition
°C
Dew Point Definition
°C
Rel Hum Definition
%
Precip. Amount Definition
mm

Wind Dir Definition
10's deg

Wind Spd Definition
km/h
Visibility Definition
km
Stn Press Definition
kPa
Hmdx Definition


Wind Chill Definition


Weather Definition


00:00 -23.0 -27.5 67   29 41 24.1 98.92   -38 Mainly Clear
01:00 -23.6 -28.3 65   29 39 24.1 98.98   -39 Mainly Clear
02:00 -24.0 -28.8 65   29 32 24.1 99.07   -38 Mainly Clear
03:00 -24.4 -29.3 64   28 30 24.1 99.11   -38 Mainly Clear
04:00 -24.5 -29.4 64   29 20 24.1 99.15   -36 Clear
05:00 -25.0 -28.8 71   29 13 24.1 99.17   -34 Clear
06:00 -25.0 -28.8 71   28 13 24.1 99.21   -34 Mainly Clear
07:00 -24.6 -28.3 71   27 13 40.2 99.26   -34 Mainly Clear
08:00 -24.2 -27.9 71   27 15 40.2 99.32   -34 Mainly Clear
09:00 -22.3 -28.9 55   28 17 40.2 99.37   -33 Mainly Clear
10:00 -21.0 -28.1 53   29 26 32.2 99.39   -33 Mainly Clear
11:00 -19.1 -26.3 53   30 20 24.1 99.37   -29 Mainly Clear
12:00 -18.0 -25.6 51   29 20 24.1 99.33   -28 Mainly Clear
13:00 -17.6 -24.9 53   29 17 40.2 99.28   -27 Mainly Clear
14:00 -16.8 -22.9 59   33 9 40.2 99.23   -23 Mainly Clear
15:00 -16.5 -20.9 69   36 7 24.1 99.26   -22 Mainly Clear
16:00 -16.5 -22.4 60   6 6 24.1 99.27   -21 Mostly Cloudy
17:00 -17.0 -24.0 55   9 7 40.2 99.28   -22 Mostly Cloudy
18:00 -18.1 -24.8 56   12 7 24.1 99.28   -23 Mostly Cloudy
19:00 -19.6 -24.2 67   12 7 24.1 99.28   -25 Mostly Cloudy
20:00 -19.3 -23.8 67   14 4 24.1 99.28   -23 Mostly Cloudy
21:00 -19.0 -23.4 68   13 6 24.1 99.27   -24 Cloudy
22:00 -19.0 -23.4 68   11 9 16.1 99.26   -26 Snow Showers
23:00 -18.9 -23.3 68   12 9 16.1 99.22   -25 Snow Showers

Notes on Data Quality.

Legend

  • E = Estimated
  • M = Missing
  • NA = Not Available*
  • [empty] = Indicates an unobserved value
Date modified: